[[{"header":{"parameterUnit":"m.s-1","parameterCategory":1,"la1":30.2991,"la2":30.254,"lo1":-89.0895,"lo2":-89.0444,"dy":0.0017,"dx":0.0017,"nx":28,"ny":28,"refTime":"2023-08-09T03:00:00:Z","depth":0,"parameterNumber":2,"parameterNumberName":"U-component_of_WINDS"},"data":[0,0,0,0,0,0,0,0,0,0,0,0,0,0,0,0,0,0,0,0,0,0,0,0,0,0,0,0,0,0,0,0,0,0,0,0,0,0,0,0,0,0,0,0,0,0,0,0,0,0,0,0,0,0,0,0,0,0,1.1617,1.1618,0,1.1718,1.1719,1.172,1.1713,1.1711,1.171,1.1708,1.1812,1.1816,1.182,0,0,0,0,0,0,0,0,0,0,0,0,0,1.1415,1.1419,1.1617,1.1618,1.1619,1.1718,1.1719,1.172,1.1713,1.1711,1.1709,1.1707,1.1811,1.1816,1.1821,0,0,0,0,0,0,0,0,0,0,0,0,0,1.1508,1.142,1.1617,1.1627,1.1629,1.1717,1.1719,1.1721,1.1713,1.1711,1.1709,1.1707,1.1809,1.1815,1.1821,1.1905,0,0,1.184,1.1843,0,0,0,0,0,0,0,0,1.1503,1.1516,1.1624,1.1627,1.1629,1.17,1.1686,1.1783,1.1714,1.1681,1.1708,1.1705,1.1777,1.1785,1.1809,1.191,1.1915,1.1841,1.1845,1.1847,1.1849,0,0,0,0,0,0,0,1.1496,1.1511,1.1657,1.1626,1.1629,1.1626,1.1637,1.1704,1.1741,1.1684,1.1684,1.1696,1.1777,1.1803,1.1812,1.1916,1.1841,1.1846,1.185,1.1853,1.2088,1.2091,0,0,0,0,0,0,1.1488,1.1506,1.1654,1.166,1.1559,1.1632,1.1644,1.168,1.174,1.1747,1.1698,1.1695,1.1794,1.1804,1.1815,1.1917,1.1847,1.1853,1.1857,1.2086,1.2089,1.2092,0,0,0,0,0,0,1.1483,1.1501,1.1649,1.1583,1.1601,1.1638,1.1678,1.1683,1.1709,1.175,1.1756,1.1718,1.1792,1.1807,1.1882,1.192,1.1856,1.1862,1.2083,1.2087,1.209,1.212,0,0,0,0,0,0,1.1478,1.1499,1.1532,1.1584,1.1605,1.1716,1.168,1.1687,1.172,1.1717,1.177,1.1777,1.1792,1.1873,1.1889,1.1928,1.1867,1.208,1.2085,1.2089,1.2116,1.2125,1.2132,0,0,0,0,0,1.147,1.1537,1.1534,1.1552,1.1647,1.1718,1.173,1.1746,1.1723,1.1756,1.1782,1.1775,1.1913,1.1881,1.1898,1.194,1.2078,1.2083,1.2089,1.2113,1.2123,1.2132,0,0,0,0,0,0,1.149,1.1544,1.1541,1.1627,1.1668,1.1716,1.1759,1.1756,1.1805,1.18,1.1817,1.1829,1.1905,1.193,1.1893,1.2023,1.1992,1.2002,1.2004,1.2015,1.2022,1.2015,1.1872,0,0,0,0,0,1.1505,1.1558,1.1602,1.1673,1.1694,1.1722,1.1754,1.1762,1.1805,1.1822,1.1854,1.1896,1.1948,1.1983,1.2034,1.2119,1.213,1.2156,1.2164,1.217,1.2178,1.2224,1.2235,1.211,1.211,1.211,0,0,1.1535,1.1571,1.1604,1.1678,1.1711,1.1764,1.1737,1.1796,1.1836,1.1831,1.1905,1.1929,1.1977,1.2057,1.2094,1.208,1.2215,1.2177,1.2182,1.2187,1.2231,1.2243,1.2253,1.2114,1.2113,1.2113,0,0,1.1618,1.1651,1.1713,1.1745,1.1795,1.1813,1.1828,1.1876,1.1892,1.1966,1.1963,1.201,1.2101,1.2134,1.2163,1.2255,1.2251,1.2271,1.2313,1.2357,1.2367,1.2376,1.2408,1.2419,1.2279,1.2279,1.2279,0,1.1649,1.1731,1.1745,1.1804,1.1836,1.1833,1.1895,1.1926,1.199,1.2012,1.1994,1.2106,1.2139,1.2226,1.2248,1.2272,1.2289,1.2266,1.2364,1.2373,1.2382,1.2412,1.2425,1.2281,1.2281,1.2281,1.2281,0,1.1766,1.1823,1.1867,1.1928,1.1965,1.2025,1.2047,1.2083,1.2087,1.2106,1.218,1.2218,1.2276,1.2297,1.2302,1.2385,1.2374,1.236,1.233,1.2395,1.2425,1.2437,1.2284,1.2284,1.2283,1.2282,0,0,1.1867,1.1932,1.1948,1.1975,1.2028,1.2072,1.2131,1.2186,1.2216,1.2259,1.2308,1.2384,1.2371,1.2403,1.2412,1.245,1.2519,1.2432,1.2433,1.2446,1.2612,1.2622,1.2635,1.2516,1.2519,1.252,1.2607,0,1.1954,1.206,1.2073,1.2166,1.2218,1.2214,1.2266,1.2303,1.2322,1.2368,1.2389,1.2442,1.2421,1.2441,1.2479,1.2503,1.2553,1.2497,1.2562,1.2564,1.2551,1.2651,1.2662,1.2743,1.2619,1.2621,1.2622,0,1.2072,1.2117,1.2215,1.2259,1.2281,1.2327,1.2378,1.2422,1.2464,1.2475,1.251,1.2513,1.2573,1.2539,1.2621,1.2583,1.261,1.2625,1.2629,1.2636,1.2598,1.266,1.2769,1.2781,1.2641,1.2639,1.2638,0,1.2134,1.222,1.2289,1.2312,1.2365,1.2397,1.2421,1.246,1.2492,1.2536,1.2557,1.2607,1.2635,1.2674,1.2689,1.2664,1.277,1.2738,1.2781,1.2781,1.2805,1.2803,1.2919,1.2822,1.2821,1.2821,1.2821,0,1.2231,1.2291,1.2318,1.2361,1.2427,1.2441,1.2506,1.2528,1.2562,1.2609,1.2608,1.2652,1.267,1.2716,1.2728,1.2794,1.2806,1.2817,1.2819,1.2817,1.2815,1.2835,1.283,1.2824,1.2824,1.2823,1.2822,0,1.2313,1.2333,1.2408,1.2452,1.2464,1.2511,1.2547,1.2588,1.2606,1.2664,1.2679,1.2707,1.276,1.2779,1.2845,1.2853,1.2929,1.2927,1.2915,1.2916,1.2957,1.2953,1.309,1.3108,1.2999,1.3,1.3001,0,1.2374,1.2419,1.2467,1.2498,1.2522,1.2572,1.2604,1.2618,1.2652,1.2701,1.2735,1.2788,1.2832,1.2917,1.2943,1.2993,1.2992,1.3036,1.2999,1.2995,1.2992,1.2989,1.2993,1.3043,1.3045,1.3046,1.3046,0,1.2479,1.2486,1.2532,1.2582,1.262,1.266,1.2698,1.2723,1.2743,1.278,1.2834,1.2868,1.2933,1.2986,1.3036,1.3059,1.3056,1.3057,1.307,1.3068,1.3059,1.3064,1.2934,1.3054,1.3054,1.3053,1.3053,1.3052,1.2552,1.2592,1.2631,1.2682,1.2712,1.2747,1.2787,1.2809,1.2855,1.291,1.2915,1.2973,1.3011,1.3078,1.3103,1.3148,1.3136,1.3154,1.3159,1.3163,1.3166,1.3051,1.3158,1.3157,1.3157,1.3157,1.3157,0,1.2657,1.2681,1.2728,1.2781,1.2821,1.2813,1.2854,1.2888,1.2939,1.2975,1.3017,1.3079,1.3129,1.3157,1.3207,1.3238,1.3237,1.325,1.3248,1.3254,1.3175,1.3159,1.325,1.325,1.325,1.325,1.325,1.325,1.2716,1.2783,1.2794,1.2875,1.2899,1.2956,1.298,1.3012,1.304,1.3109,1.315,1.3169,1.3201,1.3253,1.3298,1.3305,1.3323,1.3337,1.3343,1.3269,1.3259,1.325,1.3235,1.3341,1.3341,1.3419,1.3419,1.342]},{"header":{"parameterUnit":"m.s-1","parameterCategory":1,"la1":30.2991,"la2":30.254,"lo1":-89.0895,"lo2":-89.0444,"dy":0.0017,"dx":0.0017,"nx":28,"ny":28,"refTime":"2023-08-09T03:00:00:Z","depth":0,"parameterNumber":3,"parameterNumberName":"V-component_of_WINDS"},"data":[0,0,0,0,0,0,0,0,0,0,0,0,0,0,0,0,0,0,0,0,0,0,0,0,0,0,0,0,0,0,0,0,0,0,0,0,0,0,0,0,0,0,0,0,0,0,0,0,0,0,0,0,0,0,0,0,0,0,6.2275,6.2274,0,6.2252,6.2251,6.2251,6.2174,6.2172,6.217,6.2169,6.2147,6.2148,6.2149,0,0,0,0,0,0,0,0,0,0,0,0,0,6.2253,6.2254,6.2275,6.2274,6.2274,6.2252,6.2251,6.2251,6.2174,6.2172,6.217,6.2168,6.2147,6.2148,6.2149,0,0,0,0,0,0,0,0,0,0,0,0,0,6.225,6.2254,6.2275,6.2233,6.2229,6.2252,6.2251,6.2251,6.2175,6.2172,6.2169,6.2167,6.2146,6.2148,6.2149,6.2211,0,0,6.2154,6.2155,0,0,0,0,0,0,0,0,6.225,6.2251,6.2239,6.2236,6.2231,6.2213,6.2236,6.2238,6.2175,6.2195,6.2169,6.2166,6.2171,6.217,6.2172,6.221,6.2209,6.2154,6.2155,6.2156,6.2156,0,0,0,0,0,0,0,6.225,6.2251,6.2266,6.2239,6.2235,6.2216,6.2212,6.2236,6.2198,6.2193,6.2188,6.2186,6.2168,6.2171,6.2171,6.2209,6.2154,6.2155,6.2156,6.2157,6.2296,6.2298,0,0,0,0,0,0,6.2256,6.2252,6.2266,6.2265,6.2234,6.2218,6.2215,6.2222,6.2198,6.2192,6.2188,6.2182,6.2169,6.2169,6.217,6.2239,6.2156,6.2157,6.2158,6.2293,6.2296,6.2299,0,0,0,0,0,0,6.2256,6.2258,6.2267,6.2257,6.2257,6.2221,6.223,6.2222,6.2224,6.2194,6.2187,6.2197,6.2167,6.2168,6.2201,6.2237,6.2158,6.2159,6.229,6.2294,6.2298,6.238,0,0,0,0,0,0,6.2256,6.2259,6.2282,6.2258,6.2257,6.2299,6.2232,6.2224,6.2227,6.2219,6.22,6.2195,6.2165,6.2199,6.2203,6.2238,6.2161,6.2286,6.2291,6.2296,6.2374,6.2386,6.2397,0,0,0,0,0,6.2255,6.2306,6.2283,6.2285,6.2285,6.2301,6.2301,6.2265,6.2231,6.2253,6.2233,6.2195,6.2234,6.2203,6.2206,6.2243,6.2284,6.229,6.2296,6.2369,6.2384,6.2397,0,0,0,0,0,0,6.2336,6.2302,6.2276,6.2321,6.2314,6.2288,6.2315,6.2283,6.2286,6.2279,6.2235,6.2232,6.2271,6.2261,6.2228,6.2301,6.2252,6.2259,6.2306,6.2321,6.2332,6.2333,6.2162,0,0,0,0,0,6.2359,6.2374,6.2344,6.2387,6.2384,6.2351,6.2356,6.233,6.2321,6.2318,6.2301,6.2294,6.2304,6.2312,6.232,6.2373,6.2367,6.24,6.2411,6.2421,6.2427,6.2453,6.2467,6.2319,6.2319,6.2319,0,0,6.2406,6.239,6.2402,6.2402,6.2394,6.2411,6.2349,6.237,6.2381,6.2321,6.2351,6.2339,6.2329,6.2371,6.2389,6.2364,6.2467,6.2429,6.2437,6.2438,6.2461,6.2475,6.2487,6.2324,6.2323,6.2322,0,0,6.2501,6.2491,6.2524,6.2517,6.2504,6.2482,6.249,6.2468,6.2457,6.2487,6.2442,6.2456,6.2475,6.2469,6.2469,6.2562,6.2526,6.2566,6.2626,6.2652,6.2663,6.2673,6.2705,6.2717,6.2572,6.2573,6.2573,0,6.2561,6.2584,6.2545,6.2568,6.2569,6.2516,6.2549,6.2544,6.2536,6.2538,6.251,6.2532,6.2521,6.2561,6.2584,6.2586,6.2594,6.2567,6.2665,6.2674,6.2683,6.2713,6.2725,6.2577,6.2577,6.2576,6.2576,0,6.2658,6.2675,6.2704,6.2696,6.27,6.2729,6.2695,6.2704,6.2677,6.2658,6.2688,6.2674,6.2677,6.2685,6.266,6.2722,6.2706,6.2673,6.2622,6.2703,6.273,6.2741,6.2584,6.2582,6.2581,6.258,0,0,6.2802,6.2772,6.2783,6.2778,6.2761,6.2773,6.28,6.2802,6.2811,6.2807,6.2827,6.2845,6.2813,6.2813,6.2786,6.2809,6.2882,6.2772,6.2771,6.2792,6.2948,6.2973,6.2986,6.2859,6.2861,6.2863,6.2948,0,6.289,6.2932,6.2898,6.2946,6.296,6.2909,6.2932,6.2924,6.2907,6.2917,6.2898,6.2911,6.2868,6.2868,6.2888,6.2869,6.2913,6.2863,6.2877,6.2878,6.2879,6.3001,6.3027,6.3108,6.2959,6.2961,6.2962,0,6.2998,6.2998,6.3048,6.3026,6.3031,6.3052,6.3051,6.3062,6.3052,6.3038,6.3038,6.3005,6.3029,6.2981,6.3014,6.2981,6.2985,6.2977,6.2979,6.2977,6.2924,6.3001,6.3133,6.3145,6.2979,6.2977,6.2976,0,6.3096,6.3109,6.3139,6.3137,6.3114,6.3129,6.312,6.3108,6.3112,6.3112,6.3114,6.3117,6.3119,6.3123,6.3092,6.306,6.3128,6.3077,6.3116,6.3117,6.3131,6.313,6.3264,6.3138,6.3137,6.3137,6.3137,0,6.3197,6.3229,6.3182,6.3201,6.3235,6.3196,6.3231,6.3217,6.3207,6.3222,6.3179,6.3195,6.3154,6.3165,6.3142,6.3171,6.3173,6.3162,6.3155,6.3165,6.3166,6.3165,6.3158,6.314,6.314,6.3139,6.3138,0,6.3311,6.3281,6.3311,6.3286,6.3281,6.3307,6.3286,6.3302,6.3282,6.3302,6.3305,6.3274,6.3285,6.3255,6.3262,6.3246,6.3288,6.3273,6.3291,6.3286,6.3326,6.3322,6.3462,6.3478,6.3343,6.3345,6.3346,0,6.3376,6.3399,6.3377,6.3383,6.3376,6.3388,6.3391,6.3355,6.336,6.335,6.3368,6.3375,6.3379,6.3399,6.3377,6.3382,6.3366,6.3415,6.3366,6.3375,6.3364,6.3363,6.3364,6.3424,6.3426,6.3427,6.3428,0,6.3495,6.3479,6.3485,6.3486,6.3491,6.349,6.3486,6.3494,6.3455,6.3463,6.3473,6.3476,6.3483,6.349,6.3491,6.3482,6.3449,6.3444,6.3453,6.3462,6.3471,6.3465,6.3317,6.3441,6.3439,6.3438,6.3438,6.3437,6.3585,6.3602,6.3589,6.3597,6.359,6.3588,6.3601,6.3583,6.3591,6.3592,6.3571,6.3585,6.3575,6.3571,6.3566,6.3577,6.3555,6.3568,6.3571,6.3575,6.3581,6.3471,6.3578,6.3577,6.3577,6.3577,6.3576,0,6.37,6.3689,6.3696,6.3692,6.3698,6.3666,6.3661,6.3668,6.3681,6.3674,6.3678,6.369,6.3697,6.3677,6.3681,6.3694,6.3678,6.3696,6.3693,6.3692,6.3601,6.3592,6.3708,6.3708,6.3708,6.3708,6.3708,6.3708,6.376,6.3787,6.377,6.3794,6.3783,6.3796,6.3795,6.3793,6.3787,6.3801,6.3807,6.3793,6.378,6.3783,6.3788,6.3782,6.3785,6.3807,6.3796,6.3711,6.3698,6.3686,6.3677,6.3809,6.3809,6.3885,6.3886,6.3886]}]]